Probability
0 0 0 0 0 0 0 0 0 0 0 0 0 0 0 0 0 0 0 0 0 0 0 0 0 0 0 0 0 0 0 0 0 0 0 0 0 0 0 0 0 0 0 0 0 0 0 0 0
0 0 0 0 0 0 0 0 0 0 0 0 0 0 0 0 0 0 0 0 0 0 0 0 0 0 0 0 0 0 0 0 0 0 0 0 0 0 0 0 0 0 0 0 0 0 0 0 0
0 0 0 0 0 0 0 0 0 0 0 0 0 0 0 0 0 0 0 0 0 0 0 0 0 0 0 0 0 0 0 0 0 0 0 0 0 0 0 0 0 0 0 0 0 0 0 0 0
0 0 0 0 0 0 0 0 0 0 0 0 0 0 0 0 0 0 0 0 0 0 0 0 0 0 0 0 0 0 0 0 0 0 0 0 0 0 0 0 0 0 0 0 0 0 0 0 0
0 0 0 0 0 0 0 0 0 0 0 0 0 0 0 0 0 0 0 0 0 0 0 0 0 0 0 0 0 0 0 0 0 0 0 0 0 0 0 0 0 0 0 0 0 0 0 0 0
0 0 0 0 0 0 0 0 0 0 0 0 0 0 0 0 0 0 0 0 0 0 0 0 0 0 0 0 0 0 0 0 0 0 0 0 0 0 0 0 0 0 0 0 0 0 0 0 0
0 0 0 0 0 0 0 0 0 0 0 0 0 0 0 0 0 0 0 0 0 0 0 0 0 0 0 0 0 0 0 0 0 0 0 0 0 0 0 0 0 0 0 0 0 0 0 0 0
0 0 0 0 0 0 0 0 0 0 0 0 0 0 0 0 0 0 0 0 0 0 0 0 0 0 0 0 0 0 0 0 0 0 0 0 0 0 0 0 0 0 0 0 0 0 0 0 0
0 0 0 0 0 0 0 0 0 0 0 0 0 0 0 0 0 0 0 0 0 0 0 0 0 0 0 0 0 0 0 0 0 0 0 0 0 0 0 0 0 0 0 0 0 0 0 0 0
0 0 0 0 0 0 0 0 0 0 0 0 0 0 0 0 0 0 0 0 0 0 0 0 0 0 0 0 0 0 0 0 0 0 0 0 0 0 0 0 0 0 0 0 0 0 0 0 0
0 0 0 0 0 0 0 0 0 0 0 0 0 0 0 0 0 0 0 0 0 0 0 0 0 0 0 0 0 0 0 0 0 0 0 0 0 0 0 0 0 0 0 0 0 0 0 0 0
0 0 0 0 0 0 0 0 0 0 0 0 0 0 0 0 0 0 0 0 0 0 0 0 0 0 0 0 0 0 0 0 0 0 0 0 0 0 0 0 0 0 0 0 0 0 0 0 0
0 0 0 0 0 0 0 0 0 0 0 0 0 0 0 0 0 0 0 0 0 0 0 0 0 0 0 0 0 0 0 0 0 0 0 0 0 0 0 0 0 0 0 0 0 0 0 0 0
0 0 0 0 0 0 0 0 0 0 0 0 0 0 0 0 0 0 0 0 0 0 0 0 0 0 0 0 0 0 0 0 0 0 0 0 0 0 0 0 0 0 0 0 0 0 0 0 0
0 0 0 0 0 0 0 0 0 0 0 0 0 0 0 0 0 0 0 0 0 0 0 0 0 0 0 0 0 0 0 0 0 0 0 0 0 0 0 0 0 0 0 0 0 0 0 0 0
0 0 0 0 0 0 0 0 0 0 0 0 0 0 0 0 0 0 0 0 0 0 0 0 0 0 0 0 0 0 0 0 0 0 0 0 0 0 0 0 0 0 0 0 0 0 0 0 0
0 0 0 0 0 0 0 0 0 0 0 0 0 0 0 0 0 0 0 0 0 0 0 0 0 0 0 0 0 0 0 0 0 0 0 0 0 0 0 0 0 0 0 0 0 0 0 0 0
0 0 0 0 0 0 0 0 0 0 0 0 0 0 0 0 0 0 0 0 0 0 0 0 0 0 0 0 0 0 0 0 0 0 0 0 0 0 0 0 0 0 0 0 0 0 0 0 0
0 0 0 0 0 0 0 0 0 0 0 0 0 0 0 0 0 0 0 0 0 0 0 0 0 0 0 0 0 0 0 0 0 0 0 0 0 0 0 0 0 0 0 0 0 0 0 0 0
0 0 0 0 0 0 0 0 0 0 0 0 0 0 0 0 0 0 0 0 0 0 0 0 0 0 0 0 0 0 0 0 0 0 0 0 0 0 0 0 0 0 0 0 0 0 0 0 0
0 0 0 0 0 0 0 0 0 0 0 0 0 0 0 0 0 0 0 0 0 0 0 0 0 0 0 0 0 0 0 0 0 0 0 0 0 0 0 0 0 0 0 0 0 0 0 0 0
0 0 0 0 0 0 0 0 0 0 0 0 0 0 0 0 0 0 0 0 0 0 0 0 0 0 0 0 0 0 0 0 0 0 0 0 0 0 0 0 0 0 0 0 0 0 0 0 0
0 0 0 0 0 0 0 0 0 0 0 0 0 0 0 0 0 0 0 0 0 0 0 0 0 0 0 0 0 0 0 0 0 0 0 0 0 0 0 0 0 0 0 0 0 0 0 0 0
0 0 0 0 0 0 0 0 0 0 0 0 0 0 0 0 0 0 0 0 0 0 0 0 0 0 0 0 0 0 0 0 0 0 0 0 0 0 0 0 0 0 0 0 0 0 0 0 0
0 0 0 0 0 0 0 0 0 0 0 0 0 0 0 0 0 0 0 0 0 0 0 0 0 0 0 0 0 0 0 0 0 0 0 0 0 0 0 0 0 0 0 0 0 0 0 0 0
0 0 0 0 0 0 0 0 0 0 0 0 0 0 0 0 0 0 0 0 0 0 0 0 0 0 0 0 0 0 0 0 0 0 0 0 0 0 0 0 0 0 0 0 0 0 0 0 0
0 0 0 0 0 0 0 0 0 0 0 0 0 0 0 0 0 0 0 0 0 0 0 0 0 0 0 0 0 0 0 0 0 0 0 0 0 0 0 0 0 0 0 0 0 0 0 0 0
0 0 0 0 0 0 0 0 0 0 0 0 0 0 0 0 0 0 0 0 0 0 0 0 0 0 0 0 0 0 0 0 0 0 0 0 0 0 0 0 0 0 0 0 0 0 0 0 0
0 0 0 0 0 0 0 0 0 0 0 0 0 0 0 0 0 0 0 0 0 0 0 0 0 0 0 0 0 0 0 0 0 0 0 0 0 0 0 0 0 0 0 0 0 0 0 0 0
0 0 0 0 0 0 0 0 0 0 0 0 0 0 0 0 0 0 0 0 0 0 0 0 0 0 0 0 0 0 0 0 0 0 0 0 0 0 0 0 0 0 0 0 0 0 0 0 0
Wind_Speed
2 3 3 4 5 4 5 5 4 5 4 2 2 2 1 1 2 5 5 10 11 16 16 17 16 15 14 13 13 13 12 12 12 11 11 11 11 12 12 12 12 13 13 13 13 13 14 15 14
2 3 4 4 5 6 6 6 6 5 3 4 4 4 3 3 4 7 7 11 13 16 15 15 16 15 14 14 14 13 12 12 12 11 11 11 11 11 11 12 12 12 12 12 12 12 13 13 13
2 4 4 4 5 4 5 6 5 3 3 4 4 2 1 4 5 6 7 14 14 16 14 15 17 15 15 14 14 13 12 12 12 11 11 11 11 11 11 11 11 11 11 11 11 12 12 12 12
3 4 4 6 6 3 1 3 3 6 5 3 3 3 3 4 3 5 11 14 16 16 15 16 16 16 15 14 14 13 13 12 11 11 11 11 10 10 10 10 10 10 11 11 11 11 11 11 11
3 4 6 6 5 3 1 0 4 7 6 4 4 2 5 5 3 6 12 14 16 16 14 16 16 16 15 15 14 14 13 12 11 11 11 11 10 10 9 9 9 9 9 10 10 10 10 10 10
3 4 6 7 6 3 2 2 5 6 5 4 4 3 4 5 4 7 12 12 14 15 14 15 17 15 15 15 14 13 13 13 12 11 11 11 10 9 9 8 8 8 8 8 9 9 9 9 9
3 4 5 5 6 4 3 2 4 5 6 4 3 4 5 7 5 8 11 12 13 14 13 13 15 15 15 15 14 13 13 12 12 11 11 10 9 8 8 7 7 7 7 7 7 7 7 7 7
2 3 5 5 6 4 3 2 1 3 2 2 3 4 2 7 7 9 11 11 12 13 13 13 13 14 14 13 14 13 12 12 12 11 11 10 9 8 7 6 6 5 5 5 4 5 5 5 5
3 5 6 5 5 4 3 3 2 1 2 3 3 2 5 8 10 11 11 11 12 13 13 13 13 13 12 12 13 13 12 12 11 11 11 9 6 6 6 5 5 4 3 3 2 3 4 2 2
4 7 5 2 2 2 2 2 2 4 6 6 5 4 6 9 11 13 14 15 16 16 16 13 13 13 12 9 10 9 9 10 9 8 9 6 5 4 3 6 5 3 2 2 2 2 1 3 0
5 6 4 3 3 2 3 3 3 6 8 9 8 7 9 11 12 14 15 15 16 16 15 14 13 13 12 9 8 6 6 6 7 8 9 6 5 4 3 3 4 4 4 3 2 3 2 2 2
5 4 4 3 3 4 5 4 6 9 11 7 7 5 9 13 14 15 15 14 14 15 16 15 15 13 12 10 8 7 6 6 6 7 8 6 4 4 4 3 3 2 2 2 2 2 3 4 4
7 5 4 4 5 6 7 10 10 12 12 8 7 7 11 12 13 13 12 12 13 15 16 16 16 14 13 11 8 8 8 8 8 7 8 8 5 5 4 3 3 3 3 3 3 4 4 4 5
5 6 5 5 6 5 7 10 8 12 8 7 8 10 11 12 12 12 12 13 14 15 16 16 17 16 14 11 10 8 8 7 7 7 8 9 6 5 4 4 4 3 3 3 4 4 4 4 4
3 5 7 6 5 3 5 10 10 9 6 9 9 10 10 11 11 12 13 13 14 15 15 16 17 16 15 13 12 9 8 8 7 7 8 8 7 6 5 4 4 4 3 4 4 4 4 5 5
5 7 8 5 4 3 6 11 5 3 6 10 10 10 10 11 12 12 11 12 12 13 14 16 13 16 16 13 12 9 8 8 7 6 7 8 8 7 6 5 4 3 3 3 4 4 5 5 5
8 9 8 5 4 4 7 12 10 6 8 12 12 11 11 11 12 11 11 11 12 13 14 15 16 17 16 14 11 9 8 8 6 6 6 7 8 7 6 4 3 3 3 3 3 4 4 5 5
9 9 8 8 3 6 11 16 16 13 12 15 15 13 12 13 13 11 10 10 10 12 14 15 16 16 15 12 9 7 7 6 6 6 6 7 6 7 6 4 4 4 3 3 4 4 4 4 5
8 10 12 10 5 7 13 18 18 16 15 17 16 14 14 14 11 8 8 9 10 11 14 15 16 16 13 10 9 8 7 6 5 5 7 7 7 7 6 4 4 4 4 4 4 3 4 4 3
12 14 14 10 4 7 13 19 19 17 16 15 15 14 14 12 10 10 9 9 11 12 14 15 15 15 15 11 10 8 7 5 5 5 5 6 7 6 5 5 4 4 3 4 3 3 3 3 2
15 16 14 12 8 8 11 15 12 10 10 12 13 13 13 12 12 11 11 11 11 12 13 12 15 15 15 13 9 7 6 4 5 6 5 5 6 6 6 5 4 4 4 3 3 3 4 4 2
16 12 12 11 10 8 5 11 11 10 11 10 9 8 9 10 11 11 11 11 11 11 11 12 14 14 14 14 12 14 10 8 8 7 6 6 6 6 6 5 5 4 3 3 3 3 3 4 3
9 4 7 8 10 12 10 11 11 7 9 7 5 5 6 7 9 11 12 11 10 10 10 11 13 13 14 14 14 14 11 8 7 7 8 7 6 6 6 5 5 4 3 4 4 4 4 3 4
8 6 4 4 7 12 10 11 10 6 6 7 7 6 5 5 8 10 10 10 10 10 10 11 12 13 13 14 14 14 13 11 11 10 9 7 5 5 6 6 5 5 4 4 4 4 4 4 5
11 9 6 7 8 8 3 8 11 8 8 10 12 11 7 4 7 10 12 12 12 12 11 12 13 13 13 13 13 13 13 13 13 11 10 8 6 6 7 6 5 5 4 4 4 4 4 5 6
16 15 10 7 7 4 5 10 9 8 8 9 9 9 6 4 7 10 12 12 12 13 13 13 13 13 13 13 12 11 11 9 8 10 9 8 6 6 7 7 6 5 5 4 4 4 5 5 6
13 14 11 8 5 7 8 7 9 8 6 4 4 4 3 3 7 9 11 12 12 13 13 13 14 13 13 13 12 11 11 10 9 9 8 7 6 6 8 7 6 5 5 5 5 4 5 5 6
8 10 8 9 8 9 9 10 8 6 4 3 3 3 2 1 5 9 10 12 11 12 12 12 13 13 13 12 11 9 10 10 9 9 9 8 8 7 8 7 6 6 5 5 5 5 5 6 6
12 12 10 9 8 8 8 6 5 6 4 3 4 3 3 2 5 8 9 11 11 11 11 12 12 12 12 12 12 11 10 10 10 9 9 9 8 8 8 7 6 6 6 6 6 6 7 8 8
16 17 17 12 11 9 8 7 3 6 4 5 5 4 3 2 4 7 9 10 11 12 12 13 13 13 13 12 12 11 11 10 10 10 10 9 9 8 8 7 7 7 7 7 7 7 8 8 9
Wind_Direction
282 282 250 227 213 217 195 159 168 156 162 139 142 192 182 62 22 62 96 151 146 154 156 159 159 158 155 149 139 133 127 123 117 111 105 97 90 85 81 77 73 70 68 66 65 64 64 64 62
286 259 226 222 227 202 175 174 177 155 113 128 148 171 168 111 66 98 135 153 154 155 158 160 157 158 155 148 142 136 129 126 119 113 108 101 94 88 84 81 77 74 72 70 68 65 65 64 63
238 255 228 208 224 215 160 167 168 136 147 172 156 171 12 99 108 119 132 154 158 157 160 153 159 159 153 147 144 140 135 129 123 117 111 105 99 92 87 83 80 78 76 73 70 67 66 65 63
237 210 218 226 204 193 169 140 161 166 159 178 190 157 124 69 71 93 136 157 160 159 160 154 163 160 154 150 147 145 140 134 128 124 117 111 105 98 93 88 85 82 79 75 73 69 65 64 63
241 220 207 210 197 174 209 174 187 184 169 169 208 184 137 104 84 124 152 161 162 160 160 157 166 162 158 154 151 149 145 139 136 132 126 118 110 105 101 95 91 86 81 76 74 71 68 64 62
207 222 218 203 184 174 177 177 192 189 170 163 202 208 126 110 131 142 158 166 165 160 161 158 166 165 163 160 155 153 150 147 144 141 135 124 118 114 110 103 95 89 83 79 75 71 68 64 61
224 218 224 205 189 179 145 170 199 190 192 174 199 222 142 132 117 147 159 164 166 164 165 164 168 169 167 164 160 159 157 153 150 146 140 130 126 122 116 111 103 95 88 82 76 71 68 62 57
266 216 204 203 198 178 134 161 185 229 196 115 218 239 155 117 129 145 154 163 169 171 173 171 174 172 171 168 164 163 161 159 156 150 141 135 135 133 128 129 118 110 103 94 82 71 66 58 49
238 229 215 201 201 172 152 178 149 272 203 182 217 306 65 117 140 147 155 167 176 181 181 178 178 176 175 171 165 166 164 164 160 155 145 150 153 148 150 125 135 139 130 118 94 74 70 62 91
217 229 218 196 210 186 179 225 194 204 219 217 209 181 139 153 166 171 174 177 183 186 186 184 183 179 177 172 171 175 172 169 173 165 163 166 162 155 146 143 174 173 162 161 107 80 157 258 309
213 232 212 209 223 243 231 237 223 239 246 246 247 221 176 181 189 194 193 188 188 187 187 189 187 183 180 177 178 175 173 172 175 173 171 172 168 166 182 181 180 192 200 204 178 224 267 302 322
216 219 228 227 199 224 244 252 242 240 258 275 270 254 193 198 202 203 202 196 190 189 191 193 189 187 186 182 180 179 175 175 175 178 177 177 182 191 192 208 199 206 219 235 244 268 280 285 289
221 220 220 238 233 246 254 252 265 259 263 269 259 234 222 217 213 211 209 200 194 195 193 195 194 191 188 187 182 184 184 183 181 181 185 188 193 198 197 211 211 219 229 237 252 261 271 278 286
219 231 241 249 244 236 251 262 253 260 265 256 245 238 232 226 219 209 204 202 199 199 195 194 196 194 191 190 187 186 189 187 187 186 192 193 195 198 203 213 218 224 235 250 261 271 279 283 285
212 242 249 232 232 226 246 256 238 258 257 258 253 244 236 229 220 216 210 207 203 200 196 194 196 195 194 194 192 189 189 189 190 190 193 193 195 201 207 219 222 225 233 245 256 267 272 276 280
205 234 241 208 219 198 238 267 262 259 255 269 266 253 238 229 224 221 215 212 206 200 197 194 192 196 195 194 193 192 192 191 192 190 192 196 196 200 207 217 224 221 225 240 251 265 269 275 282
215 236 242 238 197 209 243 272 282 273 267 272 268 256 244 235 228 221 215 211 207 203 197 192 191 194 194 193 192 191 190 191 189 188 192 195 197 200 206 217 221 213 223 236 245 260 275 286 292
221 233 242 252 218 240 263 273 281 278 268 269 268 257 246 239 230 219 212 208 204 201 196 191 189 192 189 188 187 185 185 183 185 186 190 191 191 195 201 204 209 211 223 233 242 258 268 287 297
239 246 258 268 269 264 272 279 282 283 271 265 262 253 244 240 231 211 206 201 195 193 192 188 186 187 184 182 183 183 185 180 180 182 184 188 187 189 194 199 206 211 228 238 247 259 267 274 298
233 248 260 272 249 261 284 283 281 275 268 264 264 257 247 239 221 205 199 192 192 189 188 185 184 184 184 185 184 184 177 174 169 167 180 183 185 185 189 198 201 206 220 226 232 248 272 279 286
229 242 255 269 288 257 286 281 270 269 266 265 261 257 250 235 222 204 194 190 187 186 185 183 182 183 185 181 172 156 150 151 167 172 172 176 179 179 181 190 193 195 211 223 227 237 256 271 263
235 235 249 261 272 278 289 294 287 284 282 272 266 256 250 234 222 204 193 187 184 181 179 181 180 181 182 179 180 178 181 181 183 174 167 166 173 171 172 177 184 190 203 210 213 225 243 258 265
232 209 220 243 260 273 254 267 280 278 275 288 302 287 266 238 219 203 193 186 178 171 173 176 176 179 180 184 186 186 187 180 167 163 164 165 166 170 172 176 181 186 195 203 205 216 231 246 261
155 135 146 213 248 258 250 246 275 257 271 301 309 309 297 242 213 200 186 176 170 167 169 171 173 177 179 184 186 189 183 172 166 170 170 170 166 170 174 177 182 188 193 200 211 223 234 246 254
184 199 219 223 220 243 181 237 258 268 276 286 296 303 306 247 204 191 181 178 173 172 172 174 175 176 179 183 186 188 184 180 179 177 179 175 174 178 179 181 188 191 194 202 213 226 239 244 251
195 206 220 242 246 233 190 239 258 283 286 284 286 290 288 237 201 193 188 184 178 176 177 178 179 178 180 183 184 185 182 182 181 181 179 182 183 180 177 183 191 195 197 205 217 231 238 246 249
183 212 232 258 270 267 242 247 277 273 267 280 302 303 287 231 200 195 189 189 184 182 183 183 181 179 181 183 181 182 180 179 176 175 178 179 176 168 177 184 191 196 203 213 223 236 241 247 252
208 180 181 213 234 245 247 245 247 242 260 315 350 344 339 219 198 195 193 192 190 187 185 186 187 183 181 181 181 180 180 178 174 173 176 176 173 171 178 188 195 200 208 217 227 241 247 252 255
177 187 201 209 232 244 251 237 218 240 261 294 324 339 327 242 207 200 196 193 190 187 186 188 188 185 183 183 181 180 178 176 176 178 178 176 176 179 186 192 199 207 216 225 233 241 248 253 258
206 202 198 206 211 228 256 256 176 229 251 264 288 309 309 248 212 203 198 192 191 191 191 191 190 189 187 184 183 182 177 176 180 181 179 179 182 187 192 196 206 214 223 230 239 246 249 255 260